Home   Weather   Willemstad   Past weeks

Flag for Curaçao Past Weather in Willemstad, Curaçao — Yesterday and Last 2 Weeks

Now
88 °F

Passing clouds.


Feels Like: 100 °F
Forecast: 82 / 87 °F
Wind: 18 mph from East

Location: Hato Airport - Curacao

Current Time: Apr 24, 2017 at 3:13:44 pm

Latest Report: Apr 24, 2017 at 2:00 pm


Visibility: N/A

Pressure: 29.80 "Hg

Humidity: 70%

Dew Point: 77 °F

Location of WillemstadLocation

Past Weather in Willemstad — Graph

°F

Willemstad Temperature Yesterday

Maximum temperature yesterday: 91 °F (at 2:00 pm)
Minimum temperature yesterday: 81 °F (at 12:00 am)
Average temperature yesterday: 83 °F

High & Low Weather Summary for the Past Weeks

 TemperatureHumidityPressure
High91 °F (Apr 23, 2:00 pm)94% (Apr 16, 10:00 am)29.95 "Hg (Apr 16, 10:00 am)
Low77 °F (Apr 11, 3:00 am)55% (Apr 9, 5:00 pm)29.74 "Hg (Apr 23, 5:00 pm)
Average82 °F76%29.88 "Hg
* Reported Apr 9 1:00 pm — Apr 24 1:00 pm, Willemstad, Weather by CustomWeather, © 2017

Note: Actual official high and low records may vary slightly from our data, if they occured in-between our weather recording intervals... More about our weather records

Advertising

Willemstad Weather History for the Previous 24 Hours

Scroll right to see more
 ConditionsComfort  
Time TempWeatherWind HumidityBarometerVisibility
1:00 pm
Mon, Apr 24
88 °FPassing clouds.18 mph70%29.83 "HgN/A
12:00 pm88 °FPassing clouds.18 mph70%29.86 "HgN/A
11:00 am88 °FPassing clouds.18 mph66%29.86 "HgN/A
10:00 am86 °FPassing clouds.18 mph70%29.89 "HgN/A
9:00 am84 °FPassing clouds.17 mph79%29.89 "HgN/A
8:00 am82 °FPassing clouds.17 mph79%29.86 "HgN/A
7:00 am81 °FPassing clouds.16 mph84%29.83 "HgN/A
6:00 am81 °FPassing clouds.16 mph84%29.83 "HgN/A
5:00 am81 °FPassing clouds.13 mph84%29.83 "HgN/A
4:00 am81 °FPassing clouds.15 mph84%29.80 "HgN/A
3:00 am81 °FPassing clouds.16 mph84%29.80 "HgN/A
2:00 am81 °FPassing clouds.13 mph84%29.83 "HgN/A
1:00 am81 °FPassing clouds.14 mph84%29.86 "HgN/A
12:00 am81 °FPassing clouds.15 mph84%29.86 "HgN/A
11:00 pm
Sun, Apr 23
81 °FPassing clouds.14 mph84%29.86 "HgN/A
10:00 pm81 °FClear.13 mph89%29.86 "Hg10 mi
9:00 pm81 °FClear.13 mph89%29.83 "Hg10 mi
8:00 pm82 °FClear.13 mph84%29.83 "Hg10 mi
7:00 pm82 °FClear.13 mph79%29.77 "Hg10 mi
6:00 pm84 °FSunny.14 mph74%29.74 "Hg10 mi
5:00 pm84 °FSunny.15 mph74%29.74 "Hg10 mi
4:00 pm86 °FSunny.17 mph70%29.77 "Hg10 mi
3:00 pm88 °FPassing clouds.16 mph70%29.77 "HgN/A
Weather by CustomWeather, © 2017

See weather overviewHow to use our weather pages